Résultats de la compétition "Chpt de France Moyenne Distance Arcey" du 08-05-2010 organisée par le club 2105
     
  Télécharger le fichier CSV.  
     
     

 Circuit "D"

Licence Nom Prénom Temps CN
précédent
Score sur
la course
Différence
12288FOULET-MOREAULauria0:29:2354224977-445
1225PEREIRANadine0:29:5554374888-549
9365BARLETGaelle0:30:5455054733-772
14628KOTECKAMichaela0:31:08N/A4697N/A
14675COQUETChristelle0:32:0034464570+1124
227CHAMPTIAUXIsabelle0:32:4445674468-99
15310BROUSSEIsabelle0:32:4539174465+548
14157GIUMMARRAGaelle0:33:5330544316+1262
16029TEMPORELLISophie0:33:5850934305-788
2425BAZAUDValerie0:34:1804264N/A
2892MOULIERECamille0:34:2146464257-389
2355MANGUEROLaure0:34:38N/A4223N/A
13348SVANTESSONJulia0:34:4343524212-140
3342DEPALACIOAnne0:34:5343144192-122
14648DIDOUSophie0:35:4051374100-1037
7301DUPOIRIEUXCloe0:35:5343314076-255
17002BOVEROSeverine0:36:0243464059-287
15795DESRUMAUXCeline0:36:2344404020-420
13911JANKECHKarine0:36:2839844010+26
2032BAROUXCeline0:36:2938114008+197
896HADJIANGELISSophie0:36:4938133972+159
2377MAKOVICKAVanessa0:36:4932433972+729
15864JACOBFlorence0:37:0130833951+868
19241VADURELPauline0:37:0937753937+162
19532ROYERAurore0:37:1141743933-241
12842RODRIGUEZDelphine0:37:1441903928-262
2665ENARDSandrine0:37:2303912N/A
4373BONNEAUMathilde0:38:3639323789-143
7248COUPATElisabeth0:38:5938553751-104
19919THOLLONMarie0:39:1233263731+405
2473COLINA-Claire0:39:3503695N/A
19730ROBICGwenola0:40:0138753655-220
2722PARIGOTVirginie0:40:0340513652-399
2470MOUCHETTESabrina0:40:3939283598-330
7852TASSINElodie0:40:4238473593-254
7091VANDELLydiane0:40:49N/A3583N/A
11476DEBOCQMAINEAgnes0:40:5142663580-686
19721BILLETSandra0:40:53N/A3577N/A
16297LAROCHEMaroussia0:40:59N/A3568N/A
1687LECOURTCeline0:41:05N/A3560N/A
13850CAGNARDNathalie0:41:1732673542+275
18315SCHMITTMarine0:41:30N/A3524N/A
12386COUDERCElise0:41:37N/A3514N/A
3871MONJAUZEMarion0:42:1242593465-794
12651MIAILHEPascale0:42:1328753464+589
12528LAVETTIEmmanuelle0:42:2538313448-383
3301BOISSONNETYolande0:42:2936403442-198
10903RAVENELManon0:42:3135673440-127
14964ASTValerie0:42:39N/A3429N/A
18655BERNARDLaura0:42:4629633420+457
22160GRANDPRELaetitia0:42:59N/A3402N/A
5464DENAIXMaylis0:43:2140363374-662
21040PAULYMarianne0:43:2633353367+32
16811GRENDELMarie0:43:3927293350+621
18214DUCOULOMBIERAurélie0:43:4126933348+655
13430FAUVETChrystelle0:43:5034093336-73
14776LLUELLCeline0:43:5937493325-424
826LAVIALLEFlorence0:44:0139303322-608
18988PEYROUElisa0:44:0331443320+176
12880DUCHASSINAudrey0:44:0338833320-563
7048HAGARDVirginie0:44:3821803277+1097
13114BERNAUERLaurence0:45:0333053246-59
18145BEAUMARDLine0:45:3431643209+45
13688FRANCOISAline0:45:3634213207-214
20683DEGUERETAnne0:45:5129453190+245
20395NOMDEDEUEmilie0:46:4426503129+479
12078CASTERANMarie0:46:4935123124-388
16105REMILLEUXAngelique0:46:5431383118-20
21179STOLLAurore0:46:5626783116+438
14527VERCASSONRachel0:48:2819713017+1046
22107BÉGUINOTVanessa0:48:3403011N/A
16130ANCELJulie0:48:3633833009-374
22389HENRIOT-COLINClaire0:48:47N/A2998N/A
22572RIVIEREEstelle0:49:02N/A2983N/A
13824TREMOULETCarole0:49:0333912982-409
22611FRAPPIERVanessa0:49:3902945N/A
19355GRILLONCéline0:50:09N/A2916N/A
19725DANNECKERLaurence0:50:0929022916+14
22174FINEPascale0:50:2002905N/A
13357TSENDeborah0:50:21N/A2905N/A
20629KIRILOVAurélie0:50:3130022895-107
2375MAKOVICKAEdwige0:50:3439672892-1075
18389DELAGECaroline0:50:4628932881-12
5485SERINETCarole0:50:5127982876+78
912LOUVETEloise0:51:0034992868-631
20375BURELAnne0:52:3227662784+18
9426LERICHECamille0:52:5539802764-1216
16642PRIOUClaire0:53:2602737N/A
14718DE MINIACGwenola0:54:3135202683-837
16249DETOCManon0:54:4629412670-271
11950DESBRESTSabine0:55:1227412649-92
20518PASSEDATCéline0:55:2921922636+444
19273RELOTAude0:55:3231852633-552
6724SEGUINOTEmilie0:55:5021992619+420
17899DEPERSINIsabelle0:56:0229352610-325
15312COLESCarole0:56:5414552570+1115
15247SANCHEZMarlene0:56:5534902569-921
21023VINCENTMarilyne0:57:1632922554-738
9619PECHSTEINAlice0:57:2228872549-338
9661GIGONJosephine0:57:48N/A2530N/A
1399HERMETKrystell0:58:17N/A2509N/A
801BARRIERMarianne0:59:05N/A2475N/A
23079MERCIERAgnès0:59:56N/A2440N/A
20984MACIANFloriane1:01:54N/A2363N/A
14350ROBINAnne1:02:3032482340-908
18059BRUNDU-LEMAIRESarah1:02:4036932334-1359
21422VALENTINEmmanuelle1:04:2031012273-828
13279PRUVOSTVeronique1:05:0421672248+81
12526STAUFFEREmmanuelle1:05:1829812240-741
22693PERRINManon1:07:19N/A2172N/A
19526SOULATMarion1:09:3833042100-1204
15199ALLINCamille1:09:4025272099-428
14576GAFFURIA-Laure1:09:4035732099-1474
10805TOUZEAUClaire1:09:5723292091-238
20441MAZIERECécile1:10:1220262083+57
23403BARRINEmilie1:12:04N/A2029N/A
16801ASTOULSandrine1:12:2623022019-283
19724BOUTERAONJulie1:13:2925301990-540
22367GENINVéronique1:13:44N/A1983N/A
15464MENOCHETAudrey1:14:4127351958-777
19862CHERENSACSandra1:17:1118361895+59
9042BEGUAurore1:18:0619171873-44
12441PHILLIPSCannelle1:18:3933891859-1530
13776GESRETLaetitia1:18:44N/A1857N/A
11530GIBOURYGregorine1:19:02N/A1850N/A
13799KROLHelene1:19:2437811842-1939
20061MORELStephanie1:21:40N/A1791N/A
19740MEMBREYAurore1:23:2018721755-117
23436VILLETStéphanie1:31:29N/A1599N/A
19188REYAmélie1:31:45N/A1594N/A
19723HENAULTJessica1:32:30N/A1581N/A
22448LAPERNATEstelle1:32:50N/A1575N/A
22619MALPERTUCharlotte1:40:04N/A1461N/A
20041BAUDUMary1:45:0126101393-1217
22418PASSEPONTAudrey1:48:4601345N/A
22845GEROMEAudrey2:16:14N/A1073N/A
12071VALOISSolangeN/A14080-1408
13272CZERNIAKSidonieN/A28900-2890
16364BRUNETMarie-LineN/AN/A0N/A
23248BERNARDOTBlandineN/AN/A0N/A

  Indice de confiance du circuit (moyenne des différences entre CN et score sur la course des 3 à 10 premiers) : 77






 Retour